OPS 4682 DEB, 38368

Orbit data source: Space-Track

OPS 4682 DEB, 38368 is space debris in LEO originally from a launch on Sat, 03 Apr 1965 UTC launched from the Air Force Western Test Range (AFWTR). Debris objects in space refer to the collection of defunct objects orbiting the Earth. Examples of debris include non-operational satellites, rocket bodies, and fragments generated from explosions, collisions, or faulty payload assembly.

Loading next visibility...
Identifier
38368, 1965-027BV
Orbit
LEO
Country
Flag of USUS
Related business
Manufacturer
Unknown
Mission
Spacecraft
Bus & Motor
Unknown
Mass
Unknown
Launch date (UTC)
1965-04-03 (61 years ago)
Launch vehicle
Unknown
Launch site
Air Force Western Test Range (AFWTR)
Object type
Payload
Rocket body
Debris
Shape & HBR
Unknown shape, 0.1 m
Radar Cross Section
Small (<0.1 m²)

Expand to show TLE details & history
Last TLE update: 1 day ago

TLE from 1 day ago
0 OPS 4682 DEB
1 38368U 65027BV  25352.01291579 -.00000033  00000-0 -14170-3 0  9993
2 38368  90.2430   8.8753 0020823 256.5876 103.2923 12.96018358639228
Epoch: 2025-12-18T00:18Z
TLE epoch observation values (Epoch: 2025-12-18T00:18:35.924Z)
Latitude
0.00001°
Longitude
-82.64891°
Altitude
1,284.302 km
Speed
7.212 km/s
True Right ascension
00h 35m 30s
True Declination
0° 00' 00"
Sunlit
Object was in daylight at epoch
Visualization orbit readout
Latitude
Unknown
Longitude
Unknown
Altitude
Unknown
Speed
Unknown
Apparent Right ascension
Unknown
Apparent Declination
Unknown
Sunlit
N/A
Visualization observer readout
Local Sidereal Time
05:17:49
Azimuth
Unknown
Elevation
Unknown
Doppler factor
Unknown
Orbital elements
Apogee altitude
1,290.796 km
Perigee altitude
1,258.924 km
Semi-major axis
7,652.997 km
Eccentricity
0.00208
Inclination
90.243°
RAAN
8.8753°
Arg. of periapsis
256.5876°
True anomaly
103.52438°
Mean anomaly
103.2923°
Eccentric anomaly
103.40835°
Mean motion
3.24187 °/min
Orbital period
111.05 mins
BSTAR
-0.0001417
Loading maneuver chart data...
Computing Atmospheric mass density...
Loading historical data...
Loading historical data...
Loading historical data...
Loading historical data...
Loading historical data...
Loading historical data...
Loading historical data...

Documentation

Showing up to 5 results
|